Location: Harbor View
(36.2448°N, 86.5797°W)
Time: 08:11:55
(UTC+00:00)

OAO 3 Rocket - Pass Details

Date: 29 October 2020
Orbit: 629 x 682 km, 35.0° (Epoch: 04 December)

Event Time Altitude Azimuth Distance (km) Brightness Sun altitude
Rises 23:21:08 0° 277° (W) 2,996 8.2 -6.4°
Reaches altitude 10° 23:23:37 10° 270° (W) 2,073 7.4 -6.9°
Maximum altitude 23:28:11 43° 200° (SSW) 921 4.2 -7.8°
Drops below altitude 10° 23:32:40 10° 129° (SE) 2,034 5.3 -8.7°
Enters shadow 23:34:31 - 124° (SE) 2,720 5.9 -9.0°
